Weather History for Hamilton, OH

Change the Weather History Date:

Thursday, January 3, 2013

  Actual Average (KCVG) Record (KCVG)
Temperature  
Mean Temperature 20 °F 31 °F  
Max Temperature 36 °F 39 °F 67 °F (2004)
Min Temperature 5 °F 23 °F -10 °F (1879)
Degree Days  
Heating Degree Days 44 34  
Month to date heating degree days 102  
Since 1 July heating degree days 2021  
Cooling Degree Days 0 0  
Month to date cooling degree days 0  
Year to date cooling degree days 0  
Moisture  
Dew Point 14 °F    
Average Humidity 70    
Maximum Humidity 87    
Minimum Humidity 46    
Precipitation  
Precipitation 0.00 in 0.10 in 3.23 in (2000)
Month to date precipitation 0.31  
Year to date precipitation 0.31  
Snow  
Snow 0.00 in 0.10 in 5.50 in (1911)
Month to date snowfall 0.5  
Since 1 July snowfall 6.1  
Snow Depth -    
Sea Level Pressure  
Sea Level Pressure 30.30 in    
Wind  
Wind Speed 3 mph (West)    
Max Wind Speed 14 mph    
Max Gust Speed 17 mph    
Visibility 9 miles    
Events      
T = Trace of Precipitation, MM = Missing Value Source: NWS Daily Summary

Daily Weather History Graph

Daily Weather History Graph

Search for Another Location

Airport:

Trip Planner

Search our weather history database for the weather conditions in past years. The results will help you decide how hot, cold, wet, or windy it might be!

Date:

Astronomy

Jan. 03, 2013 Rise Set
Actual Time 7:58 AM EST 5:27 PM EST
Civil Twilight 7:28 AM EST 5:57 PM EST
Nautical Twilight 6:54 AM EST 6:30 PM EST
Astronomical Twilight 6:22 AM EST 7:03 PM EST
Moon 11:59 PM EST (1/3) 11:11 AM EST (1/3)
Length of Visible Light 10h 29m
Length of Day
9h 29m
Waning Gibbous, 65% of the Moon is Illuminated
Jan 3
Waning Gibbous
Jan 4
Last Quarter
Jan 11
New
Jan 18
First Quarter
Jan 26
Full

Hourly Weather History & Observations

Time (EST) Temp. Windchill Dew Point Humidity Pressure Visibility Wind Dir Wind Speed Gust Speed Precip Events Conditions
12:53 AM 10.9 °F - 6.1 °F 81% 30.28 in 8.0 mi Calm Calm - N/A   Clear
1:53 AM 10.0 °F - 6.1 °F 84% 30.27 in 7.0 mi Calm Calm - N/A   Clear
2:53 AM 8.1 °F - 3.9 °F 83% 30.27 in 7.0 mi Calm Calm - N/A   Clear
3:53 AM 9.0 °F - 5.0 °F 84% 30.26 in 8.0 mi Calm Calm - N/A   Clear
4:53 AM 8.1 °F - 3.9 °F 83% 30.27 in 7.0 mi Calm Calm - N/A   Clear
5:53 AM 7.0 °F - 3.0 °F 84% 30.27 in 6.0 mi Calm Calm - N/A   Clear
6:53 AM 5.0 °F - 1.9 °F 87% 30.29 in 7.0 mi Calm Calm - N/A   Clear
7:53 AM 5.0 °F - 1.0 °F 84% 30.30 in 7.0 mi Calm Calm - N/A   Clear
8:53 AM 10.0 °F - 6.1 °F 84% 30.30 in 6.0 mi Calm Calm - N/A   Clear
9:53 AM 17.1 °F - 12.9 °F 84% 30.30 in 7.0 mi Calm Calm - N/A   Clear
10:53 AM 27.0 °F 21.6 °F 12.9 °F 56% 30.30 in 10.0 mi WSW 4.6 mph - N/A   Clear
11:53 AM 30.9 °F 23.5 °F 12.9 °F 47% 30.29 in 10.0 mi WSW 8.1 mph - N/A   Clear
12:53 PM 34.0 °F 28.8 °F 15.1 °F 46% 30.27 in 10.0 mi West 5.8 mph - N/A   Clear
1:53 PM 36.0 °F 27.1 °F 21.9 °F 57% 30.26 in 10.0 mi WSW 13.8 mph - N/A   Mostly Cloudy
2:53 PM 34.0 °F 25.5 °F 21.0 °F 59% 30.28 in 10.0 mi West 11.5 mph 17.3 mph N/A   Clear
3:53 PM 34.0 °F 27.2 °F 21.0 °F 59% 30.30 in 10.0 mi West 8.1 mph - N/A   Clear
4:53 PM 32.0 °F 25.6 °F 21.0 °F 64% 30.31 in 10.0 mi WSW 6.9 mph - N/A   Mostly Cloudy
5:53 PM 32.0 °F 28.7 °F 21.0 °F 64% 30.32 in 10.0 mi Variable 3.5 mph - N/A   Overcast
6:53 PM 32.0 °F 28.7 °F 21.0 °F 64% 30.34 in 10.0 mi West 3.5 mph - N/A   Overcast
7:53 PM 32.0 °F 27.5 °F 21.9 °F 66% 30.34 in 10.0 mi West 4.6 mph - N/A   Overcast
8:53 PM 32.0 °F 27.5 °F 21.9 °F 66% 30.34 in 10.0 mi West 4.6 mph - N/A   Overcast
9:50 PM 32.0 °F 24.2 °F 21.2 °F 64% 30.32 in 10.0 mi WNW 9.2 mph - N/A   Overcast
9:53 PM 32.0 °F 24.2 °F 21.9 °F 66% 30.35 in 10.0 mi West 9.2 mph - N/A   Overcast
10:41 PM 32.0 °F 26.4 °F 21.2 °F 64% 30.33 in 10.0 mi West 5.8 mph - N/A   Overcast
10:53 PM 32.0 °F 26.4 °F 21.0 °F 64% 30.35 in 10.0 mi West 5.8 mph - N/A   Overcast
11:53 PM 30.9 °F 27.5 °F 23.0 °F 72% 30.35 in 10.0 mi WSW 3.5 mph - N/A   Overcast